Weather History for Petaluma, CA

Change the Weather History Date:

Monday, December 16, 2013

  Actual Average (KAPC) Record (KAPC)
Temperature  
Mean Temperature 47 °F 46 °F  
Max Temperature 62 °F 55 °F 69 °F (2011)
Min Temperature 32 °F 36 °F 28 °F (2006)
Degree Days  
Heating Degree Days 18    
Month to date heating degree days  
Since 1 July heating degree days  
Cooling Degree Days 0    
Month to date cooling degree days  
Year to date cooling degree days  
Moisture  
Dew Point 36 °F    
Average Humidity 72    
Maximum Humidity 100    
Minimum Humidity 37    
Precipitation  
Precipitation 0.00 in - 1.06 in (1970)
Month to date precipitation  
Year to date precipitation  
Since 1 July precipitation  
Sea Level Pressure  
Sea Level Pressure 30.21 in    
Wind  
Wind Speed 3 mph (SE)    
Max Wind Speed 14 mph    
Max Gust Speed 16 mph    
Visibility 10 miles    
Events      
T = Trace of Precipitation, MM = Missing Value Source: NWS Daily Summary

Daily Weather History Graph

Daily Weather History Graph

Search for Another Location

Airport:

Trip Planner

Search our weather history database for the weather conditions in past years. The results will help you decide how hot, cold, wet, or windy it might be!

Date:

Astronomy

Dec. 16, 2013 Rise Set
Actual Time 7:20 AM PST 4:51 PM PST
Civil Twilight 6:51 AM PST 5:21 PM PST
Nautical Twilight 6:18 AM PST 5:54 PM PST
Astronomical Twilight 5:45 AM PST 6:26 PM PST
Moon 4:45 PM PST (12/16) 6:34 AM PST (12/16)
Length of Visible Light 10h 30m
Length of Day
9h 30m
Full, 100% of the Moon is Illuminated
Dec 16
Full
Dec 17
Full
Dec 25
Last Quarter
Jan 1
New
Jan 7
First Quarter

Hourly Weather History & Observations

Time (PST) Temp. Windchill Dew Point Humidity Pressure Visibility Wind Dir Wind Speed Gust Speed Precip Events Conditions
12:15 AM 32.0 °F - 32.0 °F 100% 30.28 in 10.0 mi Calm Calm - N/A   Partly Cloudy
12:35 AM 33.8 °F - 33.8 °F 100% 30.27 in 10.0 mi Calm Calm - N/A   Partly Cloudy
12:55 AM 32.0 °F - 32.0 °F 100% 30.27 in 10.0 mi Calm Calm - N/A   Partly Cloudy
1:15 AM 32.0 °F - 32.0 °F 100% 30.27 in 10.0 mi Calm Calm - N/A   Partly Cloudy
1:35 AM 32.0 °F - 32.0 °F 100% 30.26 in 10.0 mi Calm Calm - N/A   Partly Cloudy
1:55 AM 32.0 °F - 32.0 °F 100% 30.26 in 10.0 mi Calm Calm - N/A   Scattered Clouds
2:15 AM 32.0 °F - 32.0 °F 100% 30.26 in 10.0 mi Calm Calm - N/A   Partly Cloudy
2:35 AM 32.0 °F - 32.0 °F 100% 30.26 in 10.0 mi Calm Calm - N/A   Clear
2:55 AM 32.0 °F - 32.0 °F 100% 30.25 in 10.0 mi Calm Calm - N/A   Clear
3:15 AM 32.0 °F - 32.0 °F 100% 30.25 in 10.0 mi Calm Calm - N/A   Clear
3:35 AM 32.0 °F - 32.0 °F 100% 30.24 in 10.0 mi Calm Calm - N/A   Clear
3:55 AM 33.8 °F - 33.8 °F 100% 30.24 in 10.0 mi Calm Calm - N/A   Clear
4:15 AM 32.0 °F - 32.0 °F 100% 30.23 in 10.0 mi Calm Calm - N/A   Clear
4:35 AM 33.8 °F 30.8 °F 33.8 °F 100% 30.23 in 10.0 mi NNE 3.5 mph - N/A   Clear
4:55 AM 35.6 °F - 35.6 °F 100% 30.23 in 10.0 mi Calm Calm - N/A   Partly Cloudy
5:15 AM 37.4 °F - 37.4 °F 100% 30.22 in 10.0 mi Calm Calm - N/A   Clear
5:35 AM 35.6 °F - 35.6 °F 100% 30.22 in 10.0 mi Calm Calm - N/A   Partly Cloudy
5:55 AM 37.4 °F 34.9 °F 35.6 °F 93% 30.22 in 10.0 mi East 3.5 mph - N/A   Clear
6:15 AM 41.0 °F 37.1 °F 35.6 °F 81% 30.22 in 10.0 mi East 5.8 mph - N/A   Clear
6:35 AM 41.0 °F 37.1 °F 35.6 °F 81% 30.23 in 10.0 mi East 5.8 mph - N/A   Partly Cloudy
6:55 AM 41.0 °F 37.1 °F 35.6 °F 81% 30.22 in 10.0 mi ESE 5.8 mph - N/A   Clear
7:15 AM 41.0 °F 36.4 °F 35.6 °F 81% 30.23 in 10.0 mi ESE 6.9 mph - N/A   Clear
7:35 AM 41.0 °F 38.0 °F 35.6 °F 81% 30.23 in 10.0 mi East 4.6 mph - N/A   Clear
7:55 AM 39.2 °F 35.9 °F 35.6 °F 87% 30.24 in 10.0 mi East 4.6 mph - N/A   Clear
8:15 AM 42.8 °F 40.1 °F 37.4 °F 81% 30.24 in 10.0 mi ESE 4.6 mph - N/A   Clear
8:35 AM 44.6 °F 43.1 °F 37.4 °F 76% 30.24 in 10.0 mi ESE 3.5 mph - N/A   Clear
8:55 AM 48.2 °F - 37.4 °F 66% 30.24 in 10.0 mi SE 3.5 mph - N/A   Clear
9:15 AM 48.2 °F - 37.4 °F 66% 30.25 in 10.0 mi SE 5.8 mph - N/A   Clear
9:35 AM 50.0 °F - 39.2 °F 66% 30.25 in 10.0 mi SE 6.9 mph - N/A   Clear
9:55 AM 50.0 °F - 37.4 °F 62% 30.25 in 10.0 mi SE 8.1 mph - N/A   Clear
10:15 AM 53.6 °F - 39.2 °F 58% 30.25 in 10.0 mi SSE 10.4 mph - N/A   Clear
10:35 AM 53.6 °F - 37.4 °F 54% 30.24 in 10.0 mi SSE 11.5 mph - N/A   Clear
10:55 AM 53.6 °F - 39.2 °F 58% 30.24 in 10.0 mi SSE 8.1 mph - N/A   Clear
11:15 AM 55.4 °F - 37.4 °F 51% 30.23 in 10.0 mi SSE 10.4 mph - N/A   Clear
11:35 AM 57.2 °F - 37.4 °F 48% 30.22 in 10.0 mi SE 9.2 mph - N/A   Clear
11:55 AM 57.2 °F - 37.4 °F 48% 30.20 in 10.0 mi South 12.7 mph 16.1 mph N/A   Clear
12:15 PM 59.0 °F - 37.4 °F 45% 30.19 in 10.0 mi SSE 13.8 mph - N/A   Clear
12:35 PM 59.0 °F - 37.4 °F 45% 30.19 in 10.0 mi SSE 10.4 mph - N/A   Clear
12:55 PM 60.8 °F - 37.4 °F 42% 30.18 in 10.0 mi SSE 9.2 mph 16.1 mph N/A   Clear
1:15 PM 60.8 °F - 37.4 °F 42% 30.17 in 10.0 mi SSE 10.4 mph - N/A   Clear
1:35 PM 62.6 °F - 35.6 °F 37% 30.17 in 10.0 mi South 9.2 mph - N/A   Clear
1:55 PM 62.6 °F - 37.4 °F 39% 30.17 in 10.0 mi SSE 8.1 mph - N/A   Clear
2:15 PM 62.6 °F - 37.4 °F 39% 30.16 in 10.0 mi South 9.2 mph - N/A   Clear
2:35 PM 60.8 °F - 37.4 °F 42% 30.16 in 10.0 mi SSE 8.1 mph - N/A   Clear
2:55 PM 62.6 °F - 37.4 °F 39% 30.16 in 10.0 mi South 8.1 mph - N/A   Clear
3:15 PM 62.6 °F - 37.4 °F 39% 30.16 in 10.0 mi SE 5.8 mph - N/A   Clear
3:35 PM 60.8 °F - 37.4 °F 42% 30.15 in 10.0 mi SSE 6.9 mph - N/A   Clear
3:55 PM 59.0 °F - 37.4 °F 45% 30.16 in 10.0 mi SSE 5.8 mph - N/A   Clear
4:15 PM 57.2 °F - 35.6 °F 44% 30.16 in 10.0 mi SE 3.5 mph - N/A   Clear
4:35 PM 55.4 °F - 35.6 °F 47% 30.16 in 10.0 mi ESE 3.5 mph - N/A   Clear
4:55 PM 53.6 °F - 37.4 °F 54% 30.16 in 10.0 mi ESE 4.6 mph - N/A   Clear
5:15 PM 51.8 °F - 35.6 °F 54% 30.16 in 10.0 mi East 3.5 mph - N/A   Clear
5:35 PM 48.2 °F - 35.6 °F 62% 30.16 in 10.0 mi Calm Calm - N/A   Clear
5:55 PM 46.4 °F - 35.6 °F 66% 30.16 in 10.0 mi Calm Calm - N/A   Clear
6:15 PM 44.6 °F - 35.6 °F 71% 30.17 in 10.0 mi Calm Calm - N/A   Clear
6:35 PM 44.6 °F - 35.6 °F 71% 30.16 in 10.0 mi Calm Calm - N/A   Clear
6:55 PM 44.6 °F 43.1 °F 35.6 °F 71% 30.16 in 10.0 mi NNE 3.5 mph - N/A   Clear
7:15 PM 41.0 °F - 33.8 °F 76% 30.16 in 10.0 mi Calm Calm - N/A   Clear
7:35 PM 41.0 °F - 35.6 °F 81% 30.16 in 10.0 mi Calm Calm - N/A   Clear
7:55 PM 41.0 °F 39.0 °F 35.6 °F 81% 30.16 in 10.0 mi ENE 3.5 mph - N/A   Clear
8:15 PM 44.6 °F - 35.6 °F 71% 30.16 in 10.0 mi Calm Calm - N/A   Clear
8:35 PM 41.0 °F 39.0 °F 35.6 °F 81% 30.17 in 10.0 mi NE 3.5 mph - N/A   Partly Cloudy
8:55 PM 42.8 °F 40.1 °F 35.6 °F 76% 30.17 in 10.0 mi East 4.6 mph - N/A   Partly Cloudy
9:55 PM 44.6 °F 42.2 °F 37.4 °F 76% 30.18 in 10.0 mi ESE 4.6 mph - N/A   Scattered Clouds
10:15 PM 44.6 °F 42.2 °F 37.4 °F 76% 30.19 in 10.0 mi East 4.6 mph - N/A   Mostly Cloudy
10:35 PM 46.4 °F 44.3 °F 35.6 °F 66% 30.19 in 10.0 mi East 4.6 mph - N/A   Mostly Cloudy
10:55 PM 46.4 °F 45.2 °F 35.6 °F 66% 30.19 in 10.0 mi ESE 3.5 mph - N/A   Scattered Clouds
11:15 PM 46.4 °F 42.4 °F 35.6 °F 66% 30.19 in 10.0 mi SSE 8.1 mph - N/A   Scattered Clouds
11:35 PM 44.6 °F - 37.4 °F 76% 30.19 in 10.0 mi Calm Calm - N/A   Scattered Clouds
11:55 PM 42.8 °F 41.1 °F 35.6 °F 76% 30.19 in 8.0 mi North 3.5 mph - N/A   Scattered Clouds